EW3381 Weather Reports


Display with metric or nautical units.
time (UTC)temp
F
wind
direction
speed
MPH
gust
MPH
rain 1hr
in
rain 24hr
in
rain mn
in
humidity
%
barometer
mb
20190117151521 37 223 0.0 0.0 0.00 0.00 0.00 71 1017.5
20190117150544 38 288 0.0 4.0 0.00 0.00 0.00 70 1017.1
20190117145513 38 215 0.0 0.0 0.00 0.00 0.00 68 1017.3
20190117144533 39 261 0.0 0.0 0.00 0.00 0.00 66 1017.1
20190117143556 39 305 0.0 2.0 0.00 0.00 0.00 64 1017.1
20190117142603 39 267 0.0 2.0 0.00 0.00 0.00 65 1017.1
20190117141558 39 123 0.0 4.0 0.00 0.00 0.00 64 1017.0
20190117140612 40 320 0.0 3.0 0.00 0.00 0.00 65 1016.9
20190117135619 40 218 0.0 4.0 0.00 0.00 0.00 64 1016.9
20190117134608 39 338 0.0 3.0 0.00 0.00 0.00 65 1016.9
20190117133543 39 198 0.0 3.0 0.00 0.00 0.00 64 1016.9
20190117132521 39 311 0.0 3.0 0.00 0.00 0.00 65 1016.8
20190117131456 39 319 0.0 3.0 0.00 0.00 0.00 67 1016.7
20190117130422 39 221 0.0 3.0 0.00 0.00 0.00 64 1017.1
20190117125409 39 243 0.0 2.0 0.00 0.00 0.00 66 1016.7
20190117124357 39 162 0.0 4.0 0.00 0.00 0.00 67 1016.4
20190117123400 38 221 0.0 2.0 0.00 0.00 0.00 66 1016.7
20190117122337 38 205 0.0 1.0 0.00 0.00 0.00 67 1016.6
20190117121339 38 186 0.0 1.0 0.00 0.00 0.00 67 1016.3
20190117120344 37 281 0.0 0.0 0.00 0.00 0.00 69 1016.2
20190117115329 37 317 0.0 3.0 0.00 0.00 0.00 70 1016.1
20190117114259 37 263 0.0 0.0 0.00 0.00 0.00 70 1016.3
20190117113236 36 178 0.0 0.0 0.00 0.00 0.00 72 1016.3
20190117112259 35 350 0.0 0.0 0.00 0.00 0.00 76 1016.1
20190117111248 34 308 0.0 0.0 0.00 0.00 0.00 79 1015.7
20190117110226 33 315 0.0 2.0 0.00 0.00 0.00 81 1015.7
20190117105226 33 314 0.0 2.0 0.00 0.00 0.00 83 1015.3
20190117104226 32 321 0.0 1.0 0.00 0.00 0.00 85 1015.2
20190117103220 32 328 0.0 0.0 0.00 0.00 0.00 86 1015.2
20190117102239 31 323 0.0 0.0 0.00 0.00 0.00 86 1015.3
20190117101248 31 315 0.0 0.0 0.00 0.00 0.00 87 1015.1
20190117100225 30 72 0.0 0.0 0.00 0.00 0.00 87 1015.1
20190117095207 30 72 0.0 0.0 0.00 0.00 0.00 87 1015.0
20190117094223 29 152 0.0 0.0 0.00 0.00 0.00 88 1014.7
20190117093152 29 152 0.0 0.0 0.00 0.00 0.00 88 1014.7
20190117092146 29 156 0.0 0.0 0.00 0.00 0.00 88 1014.6
20190117091139 29 323 0.0 0.0 0.00 0.00 0.00 88 1014.5
20190117090120 29 323 0.0 0.0 0.00 0.00 0.00 87 1014.2
20190117085124 29 323 0.0 0.0 0.00 0.00 0.00 86 1014.1
20190117084126 29 338 0.0 0.0 0.00 0.00 0.00 85 1013.9
20190117083133 30 13 0.0 0.0 0.00 0.00 0.00 85 1013.8
20190117082129 30 337 0.0 1.0 0.00 0.00 0.00 85 1013.6
20190117081122 30 321 0.0 0.0 0.00 0.00 0.00 85 1013.4
20190117080129 29 325 0.0 1.0 0.00 0.00 0.00 86 1013.0
20190117075055 29 317 0.0 0.0 0.00 0.00 0.00 87 1012.9
20190117074052 28 258 0.0 0.0 0.00 0.00 0.00 87 1012.7
20190117073025 28 240 0.0 0.0 0.00 0.00 0.00 86 1012.6
20190117072042 28 240 0.0 0.0 0.00 0.00 0.00 86 1012.3
20190117071106 29 240 0.0 0.0 0.00 0.00 0.00 85 1012.4
20190117070049 29 240 0.0 0.0 0.00 0.00 0.00 85 1012.3
20190117065036 29 240 0.0 0.0 0.00 0.00 0.00 84 1012.1
20190117064003 29 240 0.0 0.0 0.00 0.00 0.00 84 1011.8
20190117062940 29 240 0.0 0.0 0.00 0.00 0.00 85 1011.6
20190117061919 29 284 0.0 0.0 0.00 0.00 0.00 86 1011.5
20190117060911 29 209 0.0 0.0 0.00 0.00 0.00 85 1011.3
20190117055849 29 209 0.0 0.0 0.00 0.00 0.00 84 1011.1
20190117054842 30 194 0.0 1.0 0.00 0.00 0.00 84 1010.7
20190117053834 30 219 0.0 0.0 0.00 0.00 0.00 82 1010.5
20190117052813 29 207 0.0 0.0 0.00 0.00 0.00 83 1010.3
20190117051742 29 211 0.0 0.0 0.00 0.01 0.00 82 1010.2
20190117050731 29 313 0.0 0.0 0.00 0.02 0.00 82 1010.2
20190117045741 29 319 0.0 0.0 0.00 0.03 0.00 80 1010.0
20190117044710 29 310 0.0 0.0 0.00 0.03 0.00 80 1009.7
20190117043722 29 241 0.0 0.0 0.00 0.03 0.00 79 1009.6
20190117042715 29 232 0.0 0.0 0.00 0.04 0.00 78 1009.4
20190117041715 29 319 0.0 0.0 0.00 0.05 0.00 77 1009.4
20190117040728 29 294 0.0 0.0 0.00 0.05 0.00 76 1009.1
20190117035739 29 321 0.0 1.0 0.00 0.06 0.00 76 1009.1
20190117034711 29 301 0.0 1.0 0.00 0.06 0.00 77 1009.1
20190117033650 30 325 0.0 0.0 0.00 0.06 0.00 76 1009.0
20190117032644 30 302 0.0 0.0 0.00 0.06 0.00 76 1008.8
20190117031628 30 303 0.0 0.0 0.00 0.06 0.00 75 1008.5
20190117030650 30 328 0.0 1.0 0.00 0.06 0.00 75 1008.5
20190117025700 30 343 0.0 0.0 0.00 0.06 0.00 76 1008.3
20190117024645 30 11 0.0 0.0 0.00 0.06 0.00 76 1008.2
20190117023617 30 11 0.0 0.0 0.00 0.06 0.00 74 1008.0
20190117022615 31 346 0.0 0.0 0.00 0.06 0.00 74 1007.8
20190117021558 31 346 0.0 0.0 0.00 0.06 0.00 73 1007.5
20190117020611 31 296 0.0 0.0 0.00 0.06 0.00 73 1007.3
20190117015548 32 313 0.0 0.0 0.00 0.06 0.00 72 1006.9
20190117014548 32 287 0.0 1.0 0.00 0.06 0.00 72 1006.7
20190117013605 32 311 0.0 2.0 0.00 0.06 0.00 71 1006.6
20190117012605 33 13 0.0 2.0 0.00 0.06 0.00 71 1006.6
20190117011614 33 10 0.0 4.0 0.00 0.06 0.00 69 1006.6
20190117010602 33 340 1.0 4.0 0.00 0.06 0.00 69 1006.4
20190117005612 33 20 2.0 7.0 0.00 0.06 0.00 68 1006.2
20190117004538 33 304 1.0 7.0 0.00 0.06 0.00 70 1005.8
20190117003507 34 321 1.0 7.0 0.00 0.06 0.00 71 1005.7
20190117002459 34 306 2.0 8.0 0.00 0.06 0.00 72 1005.6
20190117001432 34 42 2.0 8.0 0.00 0.06 0.00 74 1005.4
20190117000419 35 288 1.0 5.0 0.00 0.06 0.00 77 1005.1
20190116235436 35 37 1.0 7.0 0.00 0.06 0.06 81 1004.7
20190116234402 35 348 2.0 12.0 0.00 0.06 0.06 82 1004.4
20190116233330 36 37 3.0 12.0 0.00 0.06 0.06 83 1004.3
20190116232310 36 308 3.0 9.0 0.00 0.06 0.06 87 1004.0
20190116231241 36 55 1.0 5.0 0.00 0.06 0.06 89 1003.8
20190116230240 36 15 0.0 2.0 0.00 0.06 0.06 90 1003.5
20190116225250 36 17 0.0 2.0 0.00 0.06 0.06 90 1003.1
20190116224309 36 16 1.0 7.0 0.00 0.06 0.06 89 1002.8
20190116223317 37 17 2.0 7.0 0.00 0.06 0.06 88 1002.7
20190116222246 37 291 1.0 5.0 0.00 0.06 0.06 89 1002.3
20190116221225 37 320 0.0 2.0 0.00 0.06 0.06 88 1001.9
20190116220235 36 331 0.0 1.0 0.00 0.06 0.06 89 1001.4
20190116215239 36 327 0.0 1.0 0.00 0.06 0.06 88 1001.2
20190116214226 36 242 0.0 0.0 0.00 0.06 0.06 88 1001.0
20190116213227 36 312 0.0 0.0 0.00 0.06 0.06 88 1000.8
20190116212158 36 220 0.0 0.0 0.00 0.06 0.06 88 1000.6
20190116211133 36 182 0.0 0.0 0.00 0.06 0.06 88 1000.3
20190116210130 36 234 0.0 0.0 0.00 0.06 0.06 87 1000.1
20190116205057 37 183 0.0 1.0 0.00 0.06 0.06 87 1000.1
20190116204056 37 331 0.0 1.0 0.00 0.06 0.06 87 1000.0
20190116203051 36 126 0.0 0.0 0.00 0.06 0.06 87 999.7
20190116202043 36 219 0.0 1.0 0.00 0.06 0.06 88 999.5
20190116201013 36 203 0.0 0.0 0.00 0.06 0.06 88 999.6
20190116200016 36 162 0.0 0.0 0.00 0.06 0.06 88 999.5
20190116195035 36 219 0.0 0.0 0.00 0.06 0.06 89 999.3
20190116194043 36 155 0.0 0.0 0.00 0.06 0.06 88 999.3
20190116193039 36 210 0.0 3.0 0.00 0.06 0.06 89 999.1
20190116192100 36 216 0.0 1.0 0.00 0.06 0.06 89 999.1
20190116191114 36 221 0.0 2.0 0.00 0.06 0.06 88 998.9
20190116190100 37 157 0.0 4.0 0.00 0.06 0.06 88 998.8
20190116185059 37 211 0.0 3.0 0.00 0.06 0.06 88 998.6
20190116184118 36 217 0.0 2.0 0.00 0.06 0.06 89 998.5
20190116183140 36 207 0.0 3.0 0.00 0.06 0.06 89 998.5
20190116182148 36 204 0.0 3.0 0.00 0.06 0.06 89 998.5
20190116181128 37 226 0.0 2.0 0.00 0.06 0.06 88 998.4
20190116180145 37 217 0.0 1.0 0.00 0.06 0.06 88 998.4
20190116175119 37 216 0.0 0.0 0.00 0.06 0.06 88 998.4
20190116174119 37 210 0.0 2.0 0.00 0.06 0.06 88 998.3
20190116173108 37 197 0.0 0.0 0.00 0.06 0.06 87 998.3
20190116172054 37 236 0.0 2.0 0.00 0.06 0.06 87 998.1
20190116171055 37 190 0.0 1.0 0.00 0.06 0.06 87 998.1
20190116170035 37 229 0.0 3.0 0.00 0.06 0.06 87 998.0
20190116165019 38 222 0.0 6.0 0.00 0.06 0.06 86 997.7
20190116163952 38 196 0.0 6.0 0.00 0.06 0.06 85 997.5
20190116162922 38 232 0.0 6.0 0.00 0.06 0.06 85 997.5
20190116161944 38 225 1.0 6.0 0.00 0.06 0.06 86 997.4
20190116160925 38 148 1.0 4.0 0.00 0.06 0.06 87 997.3
20190116155942 38 164 0.0 4.0 0.00 0.06 0.06 87 997.3
20190116155000 39 200 0.0 3.0 0.00 0.06 0.06 88 997.4
20190116153929 39 235 1.0 5.0 0.00 0.06 0.06 87 997.4
20190116152902 39 142 1.0 6.0 0.00 0.06 0.06 87 997.3